Terminal Aerodrome Forecast
Issued by NWS

Home | Current Version | Previous Version | Text Only | Print | Product List | Glossary On
Versions: 1 2 3 4 5 6 7 8 9 10 11 12 13
801
FTUS46 KMTR 290542
TAFSNS
TAF
KSNS 290542Z 2906/3006 25012KT P6SM SCT013
     FM290800 25009KT P6SM OVC013
     FM291800 25006KT P6SM FEW015
     FM292100 26015G21KT P6SM SKC=

USA.gov is the U.S. government's official web portal to all federal, state and local government web resources and services.